Showing default

OV1-13, 3173

Orbit data source: Space-Track

OV1-13, 3173 is a payload satellite owned by USAF OAR (US) that was launched on Sat, 06 Apr 1968 UTC via an ATLAS F launch vehicle from the Air Force Western Test Range (AFWTR). Payload-class satellites include a variety of spacecraft equipped with specific instruments for various scientific and technological missions. These include communications satellites like Starlink; space stations such as the ISS; scientific satellites like the Hubble; Earth observation satellites from companies like Planet Labs, Umbra, and HawkEye 360; GPS; miniature CubeSats for education and research; and military/defense satellites.

Loading next visibility...
Identifier
3173, 1968-026A
Orbit
Active
Country
Flag of USUS
Related business
Manufacturer
GD/Convair
Mission
Spacecraft
Bus & Motor
OV1, Unknown motor
Mass
107 kg wet, 107 kg dry
Launch date (UTC)
1968-04-06 (58 years ago)
Launch vehicle
ATLAS F
Launch site
Air Force Western Test Range (AFWTR)
Object type
Payload
Rocket body
Debris
Shape & HBR
Unknown
Radar Cross Section
Medium (>0.1 m² and <1 m²)

Expand to show TLE details & history
Last TLE update: 19 hours ago

TLE from 19 hours ago
0 OV1-13
1 03173U 68026A   25341.20161809  .00000174  00000-0  24890-3 0  9996
2 03173  99.9305 332.3921 3849489  85.6814 316.3742  7.25783288524277
Epoch: 2025-12-07T04:50Z
TLE epoch observation values (Epoch: 2025-12-07T04:50:19.802Z)
Latitude
-0.00005°
Longitude
-176.4088°
Altitude
2,945.681 km
Speed
7.082 km/s
True Right ascension
22h 09m 34s
True Declination
0° 00' 00"
Sunlit
Object was in daylight at epoch
Visualization orbit readout
Latitude
Unknown
Longitude
Unknown
Altitude
Unknown
Speed
Unknown
Apparent Right ascension
Unknown
Apparent Declination
Unknown
Sunlit
N/A
Visualization observer readout
Local Sidereal Time
21:30:37
Azimuth
Unknown
Elevation
Unknown
Doppler factor
Unknown
Orbital elements
Apogee altitude
9,224.954 km
Perigee altitude
551.143 km
Semi-major axis
11,266.185 km
Eccentricity
0.38495
Inclination
99.9305°
RAAN
332.3921°
Arg. of periapsis
85.6814°
True anomaly
274.42358°
Mean anomaly
316.3742°
Eccentric anomaly
296.66379°
Mean motion
1.81501 °/min
Orbital period
198.35 mins
BSTAR
0.0002489
Loading maneuver chart data...
Computing Atmospheric mass density...
Loading historical data...
Loading historical data...
Loading historical data...
Loading historical data...
Loading historical data...
Loading historical data...
Loading historical data...
Other satellites on launch #26 in the year 1968 (1968-04-06 UTC)

Documentation

Showing up to 5 results
|